Elsenborn, Belgium

6:56 PM CET on February 21, 2017 (GMT +0100)
Elsenborn

Weather History for EBLB - February, 2014

Change the Weather History Date:

Friday, February 21, 2014

  Actual Average Record
Temperature  
Mean Temperature 36 °F -  
Max Temperature 40 °F 40 °F 47 °F (2016)
Min Temperature 32 °F 31 °F 21 °F (2012)
Degree Days  
Heating Degree Days 29    
Moisture  
Dew Point 36 °F    
Average Humidity 95    
Maximum Humidity 100    
Minimum Humidity 81    
Precipitation  
Precipitation 0.24 in - - ()
Sea Level Pressure  
Sea Level Pressure 29.73 in    
Wind  
Wind Speed 8 mph ()    
Max Wind Speed 16 mph    
Max Gust Speed 20 mph    
Visibility 6.7 miles    
Events Rain , Snow    
Averages and records for this station are not official NWS values.
T = Trace of Precipitation, MM = Missing Value Source: Averaged Metar Reports

Daily Weather History Graph

Daily Weather History Graph

Search for Another Location

Airport or City:

Trip Planner

Search our weather history database for the weather conditions in past years. The results will help you decide how hot, cold, wet, or windy it might be!

Date:

Astronomy

Feb. 21, 2014 Rise Set
Actual Time 7:35 AM CET 6:02 PM CET
Civil Twilight 7:02 AM CET 6:36 PM CET
Nautical Twilight 6:24 AM CET 7:14 PM CET
Astronomical Twilight 5:46 AM CET 7:51 PM CET
Moon 12:18 AM CET 10:07 AM CET
Length of Visible Light 11h 33m
Length of Day
10h 27m
Waning Gibbous, 63% of the Moon is Illuminated
Feb 21
Waning Gibbous
Feb 22
Last Quarter
Mar 1
New
Mar 8
First Quarter
Mar 16
Full

Hourly Weather History & Observations

Time (CET) Temp. Windchill Dew Point Humidity Pressure Visibility Wind Dir Wind Speed Gust Speed Precip Events Conditions
12:00 AM 43 °F - 43 °F 100% 29.68 in 28 mi SW 6.7 mph - -   Clear
12:03 AM 42.8 °F 37.5 °F 42.8 °F 100% 29.65 in 6.2 mi SW 9.2 mph - N/A   Mostly Cloudy
12:09 AM 42.8 °F 37.5 °F 42.8 °F 100% 29.65 in 6.2 mi SW 9.2 mph - N/A   Mostly Cloudy
12:25 AM 42.8 °F 37.0 °F 42.8 °F 100% 29.65 in 6.2 mi SW 10.4 mph - N/A   Mostly Cloudy
1:00 AM 43 °F - 42 °F 94% 29.69 in 25 mi West 8.9 mph - - Rain Light Rain
1:24 AM 42.8 °F 37.0 °F 41.0 °F 93% 29.65 in 5.0 mi West 10.4 mph - N/A   Mostly Cloudy
1:25 AM 41.0 °F 34.7 °F 41.0 °F 100% 29.65 in 3.1 mi West 10.4 mph - N/A   Mostly Cloudy
1:45 AM 41.0 °F 36.4 °F 41.0 °F 100% 29.65 in 6.2 mi WSW 6.9 mph - N/A   Mostly Cloudy
2:00 AM 41 °F - 40 °F 97% 29.72 in 22 mi WSW 6.7 mph - - Rain Light Drizzle
2:04 AM 41.0 °F 37.1 °F 41.0 °F 100% 29.65 in 6.2 mi WSW 5.8 mph - N/A   Mostly Cloudy
2:09 AM 41.0 °F 37.1 °F 41.0 °F 100% 29.65 in 6.2 mi WSW 5.8 mph - N/A   Mostly Cloudy
2:25 AM 41.0 °F 38.0 °F 41.0 °F 100% 29.65 in 6.2 mi SW 4.6 mph - N/A   Mostly Cloudy
2:55 AM 39.2 °F 35.9 °F 39.2 °F 100% 29.65 in 6.2 mi SSW 4.6 mph - N/A   Mostly Cloudy
3:00 AM 40 °F - 39 °F 97% 29.71 in 28 mi SSW 4.5 mph - -   Clear
3:25 AM 41.0 °F 36.4 °F 39.2 °F 93% 29.65 in 6.2 mi SW 6.9 mph - N/A   Mostly Cloudy
4:00 AM 40 °F - 40 °F 99% 29.70 in 12 mi South 4.5 mph - -   Clear
4:05 AM 39.2 °F 35.0 °F 39.2 °F 100% 29.65 in 6.2 mi South 5.8 mph - N/A   Mostly Cloudy
4:15 AM 39.2 °F 33.6 °F 39.2 °F 100% 29.65 in 6.2 mi SSW 8.1 mph 19.6 mph N/A   Mostly Cloudy
4:25 AM 39.2 °F 33.6 °F 39.2 °F 100% 29.62 in 6.2 mi SSW 8.1 mph - N/A   Mostly Cloudy
4:35 AM 41.0 °F 35.8 °F 39.2 °F 93% 29.62 in 6.2 mi SSW 8.1 mph - N/A   Mostly Cloudy
5:25 AM 39.2 °F 32.5 °F 39.2 °F 100% 29.62 in 6.2 mi SW 10.4 mph - N/A   Mostly Cloudy
6:00 AM 40 °F - 39 °F 94% 29.69 in 12 mi SW 8.9 mph - -   Clear
6:25 AM 39.2 °F 32.0 °F 37.4 °F 93% 29.62 in 6.2 mi SW 11.5 mph - N/A   Mostly Cloudy
7:00 AM 39 °F - 38 °F 95% 29.69 in 13 mi SW 8.9 mph - -   Clear
7:19 AM 37.4 °F 29.8 °F 37.4 °F 100% 29.62 in 6.2 mi WSW 11.5 mph - N/A   Scattered Clouds
7:25 AM 37.4 °F 30.8 °F 37.4 °F 100% 29.62 in 6.2 mi SW 9.2 mph - N/A   Scattered Clouds
7:52 AM 37.4 °F 30.8 °F 37.4 °F 100% 29.65 in 6.2 mi SW 9.2 mph - N/A   Mostly Cloudy
8:00 AM 38 °F - 37 °F 94% 29.70 in 19 mi SW 8.9 mph - -   Mostly Cloudy
8:22 AM 37.4 °F 29.3 °F 35.6 °F 93% 29.65 in 1.9 mi West 12.7 mph - N/A Rain Light Rain Showers
8:25 AM 35.6 °F 28.0 °F 35.6 °F 100% 29.65 in 1.6 mi West 10.4 mph - N/A Rain Light Rain Showers
8:55 AM 37.4 °F 30.8 °F 37.4 °F 100% 29.65 in 6.2 mi WSW 9.2 mph - N/A   Mostly Cloudy
9:00 AM 37 °F - 36 °F 97% 29.73 in 19 mi WSW 8.9 mph - - Rain Light Rain Showers
9:25 AM 37.4 °F 30.8 °F 37.4 °F 100% 29.68 in 6.2 mi WSW 9.2 mph - N/A   Mostly Cloudy
10:00 AM 38 °F - 36 °F 92% 29.74 in 16 mi SW 8.9 mph - - Rain Light Rain
10:09 AM 37.4 °F 30.3 °F 35.6 °F 93% 29.68 in 6.2 mi SW 10.4 mph - N/A   Heavy Small Hail
10:10 AM 37.4 °F 30.3 °F 35.6 °F 93% 29.68 in 0.9 mi SW 10.4 mph - N/A   Small Hail
10:16 AM 35.6 °F 27.5 °F 35.6 °F 100% 29.68 in - SSW 11.5 mph - N/A Rain Rain
10:25 AM 35.6 °F 28.0 °F 35.6 °F 100% 29.68 in 3.1 mi SW 10.4 mph - N/A Rain Rain
11:00 AM 35 °F - 35 °F 98% 29.77 in 2 mi SW 8.9 mph - - Rain Rain
11:09 AM 33.8 °F 25.3 °F 32.0 °F 93% 29.71 in 0.9 mi WSW 11.5 mph - N/A Snow Snow Showers
11:21 AM 32.0 °F 23.6 °F 32.0 °F 100% 29.71 in 0.9 mi WSW 10.4 mph - N/A Snow Light Snow Showers
11:25 AM 33.8 °F 26.4 °F 33.8 °F 100% 29.71 in 0.9 mi WSW 9.2 mph - N/A Snow Light Snow Showers
11:53 AM 35.6 °F 28.0 °F 35.6 °F 100% 29.71 in 6.2 mi WSW 10.4 mph - N/A   Mostly Cloudy
12:00 PM 36 °F - 35 °F 97% 29.78 in 19 mi WSW 8.9 mph - - Snow Light Snow Showers
12:16 PM 37.4 °F 29.8 °F 37.4 °F 100% 29.71 in 6.2 mi WSW 11.5 mph - N/A   Mostly Cloudy
12:21 PM 37.4 °F 30.3 °F 35.6 °F 93% 29.71 in 6.2 mi WSW 10.4 mph - N/A   Mostly Cloudy
12:25 PM 37.4 °F 30.3 °F 35.6 °F 93% 29.71 in 6.2 mi WSW 10.4 mph - N/A   Mostly Cloudy
1:00 PM 38 °F - 35 °F 85% 29.76 in 25 mi WSW 13.4 mph - -   Partly Cloudy
1:25 PM 39.2 °F 30.8 °F 35.6 °F 87% 29.71 in 6.2 mi WSW 15.0 mph - N/A Rain Light Rain Showers
1:37 PM 37.4 °F 29.8 °F 33.8 °F 87% 29.71 in 1.2 mi WSW 11.5 mph - N/A Rain Light Rain Showers
2:00 PM 35 °F - 34 °F 94% 29.80 in 1 mi West 13.4 mph - - Rain Light Rain Showers
2:08 PM 35.6 °F 26.6 °F 35.6 °F 100% 29.71 in 6.2 mi West 13.8 mph - N/A   Mostly Cloudy
2:17 PM 35.6 °F 27.5 °F 35.6 °F 100% 29.74 in 6.2 mi West 11.5 mph - N/A   Mostly Cloudy
2:24 PM 35.6 °F 27.5 °F 35.6 °F 100% 29.74 in 6.2 mi West 11.5 mph - N/A   Mostly Cloudy
2:25 PM 35.6 °F 27.1 °F 35.6 °F 100% 29.74 in 6.2 mi West 12.7 mph - N/A   Mostly Cloudy
3:00 PM 37 °F - 36 °F 94% 29.81 in 5 mi West 8.9 mph - - Rain Light Rain
3:23 PM 39.2 °F 32.5 °F 35.6 °F 87% 29.74 in 6.2 mi West 10.4 mph - N/A   Mostly Cloudy
3:25 PM 37.4 °F 29.3 °F 35.6 °F 93% 29.74 in 6.2 mi West 12.7 mph - N/A   Mostly Cloudy
3:33 PM 35.6 °F 25.9 °F 33.8 °F 93% 29.74 in 3.7 mi West 16.1 mph - N/A   Unknown
4:00 PM 37 °F - 35 °F 88% 29.82 in 22 mi West 6.7 mph - -   Clear
4:03 PM 37.4 °F 32.1 °F 35.6 °F 93% 29.74 in 6.2 mi West 6.9 mph - N/A   Mostly Cloudy
4:23 PM 39.2 °F 32.0 °F 35.6 °F 87% 29.77 in 6.2 mi WSW 11.5 mph - N/A   Scattered Clouds
4:25 PM 39.2 °F 32.0 °F 33.8 °F 81% 29.77 in 6.2 mi WSW 11.5 mph - N/A   Scattered Clouds
5:00 PM 38 °F - 35 °F 83% 29.83 in 22 mi WSW 6.7 mph - -   Scattered Clouds
5:25 PM 37.4 °F 30.3 °F 33.8 °F 87% 29.77 in 6.2 mi WSW 10.4 mph - N/A   Partly Cloudy
6:00 PM 36 °F - 32 °F 81% 29.86 in 31 mi SW 6.7 mph - -   Scattered Clouds
6:25 PM 33.8 °F 27.7 °F 32.0 °F 93% 29.80 in 6.2 mi SW 6.9 mph - N/A   Unknown
7:00 PM 34 °F - 33 °F 92% 29.88 in 22 mi SSW 6.7 mph - -   Clear
7:25 PM 33.8 °F 27.0 °F 32.0 °F 93% 29.80 in 6.2 mi SSW 8.1 mph - N/A   Partly Cloudy
7:56 PM 35.6 °F 29.9 °F 33.8 °F 93% 29.80 in 4.3 mi SW 6.9 mph - N/A   Mostly Cloudy
8:00 PM 35 °F - 34 °F 92% 29.89 in 6 mi SW 6.7 mph - - Rain Drizzle
8:15 PM 35.6 °F 28.6 °F 33.8 °F 93% 29.80 in 6.2 mi SW 9.2 mph - N/A   Mostly Cloudy
8:25 PM 33.8 °F 27.7 °F 33.8 °F 100% 29.80 in 6.2 mi SW 6.9 mph - N/A   Scattered Clouds
8:45 PM 33.8 °F 27.7 °F 32.0 °F 93% 29.80 in 6.2 mi SSW 6.9 mph - N/A   Scattered Clouds
9:00 PM 34 °F - 33 °F 95% 29.90 in 19 mi SSW 6.7 mph - -   Clear
9:25 PM 33.8 °F 27.7 °F 32.0 °F 93% 29.83 in 6.2 mi SSW 6.9 mph - N/A   Partly Cloudy
10:00 PM 34 °F - 33 °F 95% 29.91 in 12 mi SSW 6.7 mph - -   Clear
10:25 PM 33.8 °F 27.7 °F 33.8 °F 100% 29.83 in 6.2 mi SW 6.9 mph - N/A   Mostly Cloudy
11:00 PM 34 °F - 33 °F 95% 29.91 in 17 mi SW 6.7 mph - -   Scattered Clouds
11:25 PM 33.8 °F 27.0 °F 32.0 °F 93% 29.83 in 6.2 mi SSW 8.1 mph - N/A   Mostly Cloudy